Location: Maiden
(35.5760°N, 81.2120°W)
Time: 02:43:34
(UTC-04:00)

Vanguard 2 - Pass Details

Date: 11 August 2020
Orbit: 553 x 2937 km, 32.9° (Epoch: 20 September)

Event Time Altitude Azimuth Distance (km) Brightness Sun altitude
Rises 17:59:41 0° 200° (SSW) 6,320 12.4 26.8°
Reaches altitude 10° 18:04:48 10° 188° (S) 5,540 12.1 25.8°
Maximum altitude 18:17:45 26° 140° (SE) 4,512 11.2 23.2°
Drops below altitude 10° 18:30:22 10° 92° (E) 5,447 11.3 20.6°
Sets 18:35:13 0° 81° (E) 6,206 11.6 19.6°
